Regional Weather Roundup
Issued by NWS

Home | Current Version | Previous Version | Text Only | Print | Product List | Glossary On
Versions: 1 2 3 4 5 6 7 8 9 10 11 12 13 14 15 16 17 18 19 20 21 22 23 24 25 26 27 28 29 30 31 32 33 34 35 36 37 38 39 40 41 42 43 44 45 46 47 48 49 50
000
ASUS45 KTFX 242110
RWRMT
MONTANA REGIONAL WEATHER ROUNDUP
NATIONAL WEATHER SERVICE GREAT FALLS MT
300 PM MDT MON JUL 24 2017

NOTE: "FAIR" INDICATES FEW OR NO CLOUDS BELOW 12000 FEET WITH NO
SIGNIFICANT WEATHER AND/OR OBSTRUCTIONS TO VISIBILITY.

MTZ001>007-043-242200-
WEST OF THE DIVIDE

CITY           SKY/WX    TMP DP  RH WIND       PRES   REMARKS
KALISPELL        N/A     89  25  10 W9G17     29.85F
MISSOULA         N/A     92  31  11 W22G28    29.89S
BUTTE          SUNNY     86  32  14 W10G25    30.03S
MULLAN PASS      N/A     72  34  24 N5        30.12S
ANACONDA         N/A     88  34  14 W17G31    29.98S
DEER LODGE       N/A     86  39  19 NW10      29.97R
EUREKA           N/A     81  32  17 MISG      29.89S
HAMILTON         N/A     88  43  20 W12       29.91F
LIBBY            N/A     88  28  11 S7        29.87S
PLAINS           N/A     90  39  16 SW7       29.89F
THOMPSON FALLS   N/A     91  29  11 W14       29.92F
$$

MTZ008-052>055-242200-
SOUTHWEST MONTANA

CITY           SKY/WX    TMP DP  RH WIND       PRES   REMARKS
BOZEMAN        SUNNY     90  49  24 VRB3      29.95F
DILLON         MOSUNNY   80  48  32 W20G28    30.00S
W YELLOWSTONE  CLOUDY    81  32  17 W10G17    30.14F
ENNIS          SUNNY     86  34  15 SW3       30.07S
THREE FORKS      N/A     93  39  15 S6        29.93F
TWIN BRIDGES     N/A     88  41  19 CALM      29.98S
$$

MTZ009-010-012-014-046-048-049-054-242200-
EAST SLOPES AND CENTRAL MONTANA

CITY           SKY/WX    TMP DP  RH WIND       PRES   REMARKS
CUT BANK         N/A     74  36  25 VRB3      29.93F
GREAT FALLS    SUNNY     81  45  28 E9        29.89F
MALMSTROM AFB  SUNNY     80  45  29 NE6       29.89F
HELENA         PTSUNNY   94  39  14 W15       29.87F HX  90
CHOTEAU          N/A     77  41  27 VRB5G12   29.94F
$$

MTZ011-013-016-021-045-047-050-051-242200-
NORTH CENTRAL MONTANA

CITY           SKY/WX    TMP DP  RH WIND       PRES   REMARKS
HAVRE          MOSUNNY   77  40  26 VRB3      29.90F
LEWISTOWN      MOSUNNY   82  46  28 VRB6      29.95F
N BAR RANCH      N/A     82  45  26 VRB5G24   29.99F
CHINOOK          N/A     77  39  25 NW7       29.89F
$$

MTZ017>020-022>027-061-062-242200-
NORTHEAST MONTANA

CITY           SKY/WX    TMP DP  RH WIND       PRES   REMARKS
GLASGOW        PTSUNNY   84  44  24 W15       29.85F
JORDAN           N/A     85  47  26 N9G22     29.88S
SIDNEY         SUNNY     92  55  28 N17       29.77R HX  90
WOLF POINT     PTSUNNY   93  47  20 NW16      29.81F
MALTA          SUNNY     81  45  28 NW14      29.87F
PLENTYWOOD       N/A     82  45  26 N15G22    29.82S
POPLAR           N/A     86  52  30 NW12G21   29.81S
SCOBEY           N/A     83  44  25 NW10      29.85S
$$

MTZ028>42-056>058-242200-
SOUTHCENTRAL AND SOUTHEAST MONTANA

CITY           SKY/WX    TMP DP  RH WIND       PRES   REMARKS
BAKER          SUNNY     98  44  15 NW10      29.81F HX  94
BILLINGS       MOSUNNY   91  40  16 E8        29.90F
LIVINGSTON     SUNNY     91  37  15 W9G18     29.94F
MILES CITY     SUNNY     94  45  18 N17G26    29.84R HX  90
BIG TIMBER     SUNNY     93  34  12 W16       29.95S
EKALAKA          N/A     96  44  16 W9        29.85F HX  92
FORSYTH          N/A     90  48  24 N6        29.85S
LAUREL           N/A     92  44  18 E6        29.90S
$$

REGIONAL REPORTS...DAKOTAS

CITY           SKY/WX    TMP DP  RH WIND       PRES   REMARKS
WILLISTON      SUNNY     95  52  23 NW20G25   29.76R HX  92
MINOT          SUNNY     97  55  24 S20G26    29.73F HX  95
DICKINSON      SUNNY     96  55  25 S12G18    29.77F HX  94
BEACH            N/A     95  43  16 NW12G21   29.82S HX  91
CROSBY           N/A     86  54  32 NW13G18   29.79S
TIOGA            N/A     91  54  27 N17       29.77S
WATFORD CITY     N/A     97  50  20 NW9G20    29.72F HX  94
BISMARCK       SUNNY     90  64  42 S15       29.82S HX  91
GRAND FORKS    PTSUNNY   83  65  54 S22G28    29.89S
FARGO          MOSUNNY   79  63  57 S16G25    29.91F
BUFFALO SD       N/A     96  54  24 SE7       29.76F HX  94
RAPID CITY     SUNNY     97  50  20 NE10      29.83F HX  94
$$

REGIONAL REPORTS...WYOMING/IDAHO/WASHINGTON

CITY           SKY/WX    TMP DP  RH WIND       PRES   REMARKS
GILLETTE       SUNNY     96  34  11 W8G16     29.92S HX  91
SHERIDAN       SUNNY     94  40  15 NW10      29.92S HX  90
BUFFALO WY     CLOUDY    93  37  14 N12       29.99S
CODY           SUNNY     90  37  15 VRB3      29.97F
YELLOWSTONE LA   N/A     81  28  14 VRB5      30.25S
IDAHO FALLS    MOSUNNY   92  30  11 VRB3      30.01F
BOISE            N/A     93  46  19 NW6       29.88F
SPOKANE          N/A     82  25  12 VRB5      29.96F
$$

REGIONAL REPORTS...ALBERTA

CITY           SKY/WX    TMP DP  RH WIND       PRES   REMARKS
EDMONTON       LGT RAIN  54  52  94 W17G31    29.82R
CALGARY        PTSUNNY   70  41  35 N13G21    29.94R
LETHBRIDGE     MOSUNNY   72  39  30 E5        29.91F
MEDICINE HAT   MOSUNNY   73  37  27 W12G22    29.90F
WATERTON GATE    N/A     73  41  31 E5          N/A
CARDSTON         N/A     73  39  29 E6          N/A
MILK RIVER       N/A     73  39  29 N1          N/A
$$

REGIONAL REPORTS...SASKATCHEWAN

CITY           SKY/WX    TMP DP  RH WIND       PRES   REMARKS
SWIFT CURRENT  SUNNY     73  37  27 W21G29    29.86F
REGINA         MOSUNNY   77  45  31 W18G24    29.81R
SASKATOON      MOSUNNY   70  45  40 SW21G31   29.74R
CYPRESS HILLS    N/A     68  36  30 W8          N/A
ROCKGLEN         N/A     77  41  27 NW10G17     N/A
$$



USA.gov is the U.S. government's official web portal to all federal, state and local government web resources and services.